Tracking 28799 objects as of 18-Apr-2024
HD Live streaming from Space Station
objects crossing your sky now

ARIANE 5 DEB (SYLDA)

Track ARIANE 5 DEB (SYLDA) now!
10-day predictions


NORAD ID: 29164
Int'l Code: 2006-020C
Perigee: 272.0 km
Apogee: 7,884.8 km
Inclination: 6.8 °
Period: 177.2 minutes
Semi major axis: 10449 km
RCS: 17.7393 m2 (large)
Launch date: May 27, 2006
Source: France (FR)
Launch site: FRENCH GUIANA (FRGUI)

Note: This is SATELLITE DEBRIS
Your satellite tracking list
Your tracking list is empty




NASA's NSSDC Master Catalog

Two Line Element Set (TLE):
1 29164U 06020C   24108.44808003  .00161751  00000-0  72956-2 0  9994
2 29164   6.8222 285.6607 3642737 217.5387 110.4329  8.12767642327345
Source of the keplerian elements: AFSPC